Zurück zum Katalog

CZ-12 R/B

AktivLEO
NORAD 69581·ROCKET BODY·🇨🇳 China

Gestartet Jun 17, 2026 von Wenchang Space Launch Site

Loading…

Nächste Überflüge (nächste 24 Stunden)

TLE

AktuellSource: Space-Track

Epoche: Sep 14, 2026, 08:28 UTC

1 69581U 26137K   26257.35328925 -.00000067  00000-0  47144-4 0  9995
2 69581  49.9882 247.3348 0077425  58.7399 302.1063 14.11697712 12601

Verfolge CZ-12 R/B in Echtzeit mit AllMySat

Download on the App Store